Location: �perlecques
(50.8057°N, 2.1521°E)
Time: 23:38:51
(UTC+00:00)

Cosmos 2219 Rocket - Pass Details

Date: 09 April 2020
Orbit: 829 x 845 km, 71.0° (Epoch: 23 May)

Event Time Altitude Azimuth Distance (km) Brightness Sun altitude
Rises 22:25:03 0° 331° (NNW) 3,392 6.6 -28.2°
Reaches altitude 10° 22:28:17 10° 349° (N) 2,453 5.5 -28.4°
Maximum altitude 22:32:10 19° 33° (NNE) 1,908 4.3 -28.6°
Enters shadow 22:35:00 13° 68° (ENE) 2,211 4.3 -28.8°
